Location: ??????
(56.0120°N, 39.1740°E)
Time: 08:50:31
(UTC+00:00)

Cosmos 292 Rocket - Pass Details

Date: 14 April 2026
Orbit: 661 x 682 km, 74.0° (Epoch: 10 May)

Event Time Altitude Azimuth Distance (km) Brightness Sun altitude
Rises 22:11:11 0° 330° (NNW) 3,058 7.8 -23.6°
Reaches altitude 10° 22:13:30 10° 329° (NNW) 2,139 6.9 -23.5°
Maximum altitude 22:18:18 74° 246° (WSW) 715 3.6 -23.3°
Enters shadow 22:18:36 71° 212° (SSW) 725 3.6 -23.3°
